This is the latest recevied weather packets stored in our database for station/object ED2YAA-10. If no packets are shown the sender has not sent any weather packets the latest 10 day(s).
| Time | Temp. | Humidity | Pressure | Rain* | Wind** | Luminosity | Snow |
|---|---|---|---|---|---|---|---|
| 1777496201 | 23.89° C | 37% | 924.2 hPa | - | - | - | - |
| 1777495301 | 24.44° C | 36% | 924.7 hPa | - | - | - | - |
| 1777494401 | 25° C | 35% | 924.5 hPa | - | - | - | - |
| 1777493501 | 25.56° C | 36% | 924.4 hPa | - | - | - | - |
| 1777476419 | 30.56° C | 34% | 922.1 hPa | - | - | - | - |
| 1777475519 | 30.56° C | 34% | 922 hPa | - | - | - | - |
| 1777474619 | 30.56° C | 35% | 922 hPa | - | - | - | - |
| 1777473719 | 30° C | 35% | 922.1 hPa | - | - | - | - |
| 1777472819 | 30° C | 36% | 921.9 hPa | - | - | - | - |
| 1777471919 | 29.44° C | 36% | 921.8 hPa | - | - | - | - |
| 1777471019 | 29.44° C | 36% | 921.8 hPa | - | - | - | - |
| 1777470119 | 30° C | 37% | 922 hPa | - | - | - | - |
| 1777469219 | 33.33° C | 33% | 921.9 hPa | - | - | - | - |
| 1777468319 | 22.78° C | 51% | 921.5 hPa | - | - | - | - |
| 1777467422 | 28.33° C | 42% | 921.9 hPa | - | - | - | - |
| 1777466522 | 27.78° C | 42% | 921.8 hPa | - | - | - | - |
| 1777465622 | 26.67° C | 43% | 921.8 hPa | - | - | - | - |
| 1777464721 | 26.11° C | 42% | 921.7 hPa | - | - | - | - |
| 1777463822 | 26.11° C | 43% | 921.9 hPa | - | - | - | - |
| 1777462921 | 25.56° C | 43% | 922 hPa | - | - | - | - |
| 1777462021 | 25° C | 44% | 922.1 hPa | - | - | - | - |
| 1777461120 | 24.44° C | 45% | 922 hPa | - | - | - | - |
| 1777460218 | 23.89° C | 44% | 922 hPa | - | - | - | - |
| 1777459318 | 23.33° C | 44% | 922 hPa | - | - | - | - |
| 1777458417 | 23.33° C | 44% | 922.1 hPa | - | - | - | - |
* Rain since midnight (hover to see other rain measurements)
** Current wind speed in m/s (hover to see current wind gust speed)